Cloud_Cover
5 5 5 29 100 100 100 100 100 100 100 100 100 100 100 100 100 100 100 100 100 99 97 100 87 11 9 12 4 1 15 2 0 0 0 0 1 0 0 0 0 0 0 0 0 0 0 0 0
76 17 8 14 93 100 100 100 100 100 100 100 100 100 100 100 100 97 100 100 100 99 100 100 100 36 5 64 3 0 2 4 0 2 3 5 4 4 5 4 0 0 2 0 0 0 0 0 0
35 5 4 5 5 100 100 100 100 100 100 100 100 100 100 100 100 100 97 100 100 100 96 66 48 5 5 5 5 5 22 5 3 5 4 5 5 8 5 3 2 4 2 4 3 5 0 1 0
5 5 4 3 26 97 100 100 100 100 100 100 100 100 100 100 100 100 100 100 100 100 100 100 69 25 5 5 6 96 15 5 5 3 1 5 95 16 5 5 5 5 4 5 5 7 2 0 0
5 21 3 4 23 13 100 100 100 100 100 100 100 100 100 100 100 100 100 100 100 100 95 91 86 77 74 80 96 77 65 19 5 10 15 32 37 5 20 35 5 21 5 43 5 5 4 0 0
45 91 5 4 21 40 82 100 100 100 100 100 100 100 100 100 100 100 100 100 100 100 93 41 67 100 50 100 100 98 82 53 27 62 34 30 30 97 33 38 12 56 69 51 19 5 5 0 0
74 99 21 85 5 79 86 100 100 100 100 100 100 100 100 100 100 100 100 100 100 100 87 99 100 100 99 100 100 99 100 100 99 72 100 100 98 94 99 99 7 94 27 92 80 2 3 0 0
69 93 44 61 100 82 100 100 100 100 100 100 100 100 100 100 100 100 100 100 100 100 100 100 99 83 100 100 100 100 100 100 100 100 100 100 100 100 100 88 92 98 94 96 9 5 5 0 0
48 100 96 68 100 100 100 100 100 100 100 100 100 100 100 100 100 100 100 100 100 100 100 100 100 100 98 100 81 100 100 100 94 100 100 100 100 100 100 83 35 72 18 86 8 4 0 0 0
48 88 99 100 100 100 100 100 100 100 100 100 100 100 100 100 100 93 95 99 100 100 100 100 100 99 100 100 100 100 100 100 100 100 100 100 89 100 73 78 34 6 5 5 8 2 4 2 0
97 100 100 100 100 100 100 100 100 100 100 100 100 100 100 100 100 100 100 100 100 99 100 100 51 100 100 100 100 100 100 100 100 100 100 100 100 98 99 100 100 8 0 5 2 5 5 0 0
100 100 100 100 100 100 100 100 100 100 100 100 100 100 100 100 100 100 100 100 100 100 100 97 100 100 100 100 100 100 100 100 100 100 100 100 100 99 94 30 5 5 11 23 5 4 0 0 0
100 100 100 100 100 100 100 100 100 100 100 100 100 100 100 100 100 100 100 100 100 91 100 100 100 100 100 100 100 100 100 100 100 100 100 100 100 68 6 3 2 0 1 11 46 5 2 0 3
100 100 100 100 100 100 100 100 100 100 100 100 100 100 100 100 100 100 100 100 100 100 100 100 100 100 100 100 100 100 100 100 100 99 84 36 1 5 5 1 0 1 5 4 2 0 3 0 0
100 100 100 100 100 100 100 100 100 100 100 100 100 100 100 100 100 100 100 100 100 100 100 100 100 100 100 100 100 100 100 29 10 5 27 6 5 4 0 5 3 5 5 0 2 5 5 0 2
89 100 100 100 100 100 100 100 100 100 100 100 100 55 100 100 99 5 38 91 96 57 26 100 100 100 100 100 100 100 100 100 78 100 99 95 21 0 0 3 5 5 5 5 5 5 5 5 4
60 79 95 100 100 100 100 100 100 100 100 100 93 86 84 59 91 100 88 26 51 49 100 100 100 100 100 100 100 100 100 100 100 96 100 100 14 8 32 76 35 5 5 5 5 5 5 2 0
95 75 75 83 100 100 100 100 100 100 100 100 100 100 100 100 100 100 100 88 100 100 81 78 88 100 100 100 100 100 100 100 100 58 71 56 40 100 100 29 6 5 5 5 5 4 5 1 0
5 5 5 5 30 86 68 55 100 98 100 100 100 7 23 97 78 76 86 90 6 49 86 99 100 100 100 100 100 100 93 86 5 5 5 7 75 30 5 4 0 0 0 0 0 0 0 0 0
5 3 5 65 68 68 45 69 57 99 100 75 88 48 5 12 7 5 17 9 8 65 91 100 75 59 95 87 18 4 5 5 5 4 2 1 0 0 0 0 0 0 0 0 0 0 0 0 6
5 5 6 12 12 5 7 5 22 71 57 17 3 1 0 0 5 25 43 93 100 76 48 69 97 100 35 5 5 5 0 0 1 2 2 0 0 0 1 0 0 0 0 0 0 0 0 0 0
1 0 0 0 2 3 2 4 5 0 0 0 0 0 1 0 5 5 5 78 26 33 100 100 71 5 28 4 1 4 5 5 5 5 5 2 3 5 3 4 4 0 0 0 0 0 0 0 0
0 0 0 0 0 5 2 0 0 0 0 0 0 2 0 5 87 5 56 6 33 100 90 56 57 65 55 98 18 7 5 5 5 0 5 5 6 5 10 7 5 2 5 5 0 1 0 0 0
0 0 0 0 0 0 0 0 0 0 0 0 0 0 5 5 5 20 29 58 95 100 100 100 100 96 69 88 68 95 83 5 5 38 78 76 83 97 25 5 5 5 3 1 4 2 4 2 0
0 0 1 0 0 0 0 0 0 0 0 0 0 0 5 5 4 10 64 86 100 100 67 96 100 100 97 39 5 5 5 15 65 74 66 42 35 37 5 5 5 5 5 5 5 14 5 5 5
0 0 0 0 4 0 0 0 0 0 0 0 0 0 0 5 7 80 78 93 5 5 69 32 56 38 5 5 5 46 63 5 5 5 5 5 5 5 5 5 4 5 5 10 15 8 70 86 5
0 0 0 0 0 0 0 0 0 0 0 0 0 2 5 5 12 27 2 0 5 5 5 6 61 88 95 5 5 5 5 5 5 5 5 23 43 5 5 5 6 84 100 98 89 100 99 93 97
0 0 0 0 0 0 0 0 0 0 0 0 0 4 13 46 4 0 4 5 5 5 9 95 87 20 5 5 5 5 5 5 6 30 44 13 5 5 5 58 38 5 34 24 98 89 100 100 100
0 0 0 0 1 1 3 0 0 0 0 0 1 3 0 0 0 4 5 7 10 7 51 23 5 5 93 99 5 5 5 5 5 5 4 5 5 2 0 0 1 5 2 100 98 74 94 97 93
0 0 0 0 0 5 4 1 0 0 0 0 0 0 0 0 5 8 76 98 97 96 19 22 84 100 74 5 5 5 5 5 5 5 2 0 0 0 0 1 40 88 16 82 100 100 100 100 100